Location: Dumpton Point
(51.3500°N, 1.4433°E)
Time: 15:32:14
(UTC+00:00)

SR - All Passes

Search period start: 07 October 2022 00:00
Search period end: 17 October 2022 00:00
Orbit: 574 x 878 km, 66.7° (Epoch: 06 October)

Date Brightness Start Highest point End Pass type
(mag) Time Alt. Az. Time Alt. Az. Time Alt. Az.
07 Oct - 00:13:11 10° NW 00:16:52 17° N 00:20:25 10° NE visible
07 Oct - 01:56:29 10° NNW 02:00:57 23° NNE 02:05:10 10° ENE visible
07 Oct - 03:38:34 10° NW 03:44:05 66° NE 03:49:07 10° SE visible
07 Oct - 05:21:19 10° NW 05:25:41 26° WSW 05:29:44 10° SSW visible
07 Oct - 18:14:57 10° SE 18:18:21 16° ESE 18:21:45 10° ENE visible
07 Oct - 19:53:40 10° SSW 19:59:33 73° SE 20:05:23 10° NE visible
07 Oct - 21:36:46 10° W 21:42:08 35° NW 21:47:23 10° NNE visible
07 Oct - 23:21:57 10° NW 23:25:52 18° N 23:29:40 10° NNE visible
08 Oct - 01:06:04 10° NNW 01:10:04 19° NNE 01:13:53 10° ENE visible
08 Oct - 02:48:20 10° NNW 02:53:38 42° NE 02:58:28 10° ESE visible
08 Oct - 04:30:37 10° NW 04:35:48 46° WSW 04:40:31 10° S visible
08 Oct - 19:03:54 10° S 19:09:28 44° ESE 19:14:57 10° NE visible
08 Oct - 20:45:49 10° WSW 20:51:34 50° NW 20:57:11 10° NNE visible
08 Oct - 22:30:33 10° WNW 22:34:57 21° NNW 22:39:12 10° NNE visible
09 Oct - 00:15:25 10° NW 00:19:05 17° N 00:22:38 10° NE visible
09 Oct - 01:58:07 10° NNW 02:02:59 29° NNE 02:07:31 10° E visible
09 Oct - 03:40:12 10° NW 03:45:41 81° SW 03:50:40 10° SSE visible
09 Oct - 05:23:51 10° WNW 05:26:47 15° WSW 05:29:35 10° SW visible
09 Oct - 18:14:46 10° SSE 18:19:31 26° ESE 18:24:14 10° ENE visible
09 Oct - 19:55:13 10° SW 20:01:09 77° NW 20:06:59 10° NE visible
09 Oct - 21:39:10 10° W 21:44:06 27° NNW 21:48:54 10° NNE visible
09 Oct - 23:24:25 10° NW 23:28:05 17° N 23:31:38 10° NE visible
10 Oct - 01:07:49 10° NNW 01:12:12 22° NNE 01:16:19 10° ENE visible
10 Oct - 02:49:55 10° NW 02:55:23 61° NE 03:00:22 10° SE visible
10 Oct - 04:32:34 10° NW 04:37:03 28° WSW 04:41:12 10° SSW visible
10 Oct - 17:26:41 10° SE 17:29:46 15° ESE 17:32:49 10° ENE daylight
10 Oct - 19:05:01 10° SSW 19:10:54 68° ESE 19:16:41 10° NE visible
10 Oct - 20:47:59 10° WSW 20:53:24 36° NW 20:58:41 10° NNE visible
10 Oct - 22:33:08 10° NW 22:37:06 18° NNW 22:40:55 10° NNE visible
11 Oct - 00:17:23 10° NNW 00:21:17 19° NNE 00:25:01 10° ENE visible
11 Oct - 01:59:41 10° NNW 02:04:53 39° NE 02:09:40 10° ESE visible
11 Oct - 03:41:55 10° NW 03:47:08 50° WSW 03:51:52 10° SSE visible
11 Oct - 18:15:20 10° S 18:20:48 41° ESE 18:26:13 10° NE visible
11 Oct - 19:57:04 10° WSW 20:02:51 53° NW 20:08:29 10° NNE visible
11 Oct - 21:41:43 10° WNW 21:46:10 22° NNW 21:50:29 10° NNE visible
11 Oct - 23:26:40 10° NW 23:30:18 17° N 23:33:47 10° NE visible
12 Oct - 01:09:27 10° NNW 01:14:13 28° NNE 01:18:40 10° E night (unlit)
12 Oct - 02:51:31 10° NW 02:57:00 87° WSW 03:01:57 10° SE visible
12 Oct - 04:34:58 10° WNW 04:38:10 16° WSW 04:41:12 10° SW visible
12 Oct - 17:26:18 10° SSE 17:30:53 24° ESE 17:35:27 10° ENE daylight
12 Oct - 19:06:30 10° SW 19:12:28 81° NW 19:18:16 10° NE visible
12 Oct - 20:50:21 10° W 20:55:21 28° NNW 21:00:12 10° NNE visible
12 Oct - 22:35:38 10° NW 22:39:17 17° N 22:42:49 10° NE visible
13 Oct - 00:19:09 10° NNW 00:23:24 22° NNE 00:27:26 10° ENE visible
13 Oct - 02:01:14 10° NW 02:06:40 57° NE 02:11:35 10° SE night (unlit)
13 Oct - 03:43:50 10° NW 03:48:24 30° WSW 03:52:38 10° S night (unlit)
13 Oct - 16:38:27 10° SE 16:41:09 13° ESE 16:43:50 10° ENE daylight
13 Oct - 18:16:23 10° SSW 18:22:13 63° ESE 18:27:57 10° NE visible
13 Oct - 19:59:11 10° WSW 20:04:40 38° NW 20:09:59 10° NNE visible
13 Oct - 21:44:19 10° WNW 21:48:18 19° NNW 21:52:09 10° NNE visible
13 Oct - 23:28:40 10° NNW 23:32:29 18° NNE 23:36:08 10° NE visible
14 Oct - 01:11:01 10° NNW 01:16:08 37° NE 01:20:51 10° ESE night (unlit)
14 Oct - 02:53:13 10° NW 02:58:27 54° WSW 03:03:12 10° SSE night (unlit)
14 Oct - 17:26:45 10° S 17:32:09 38° ESE 17:37:28 10° NE visible
14 Oct - 19:08:18 10° WSW 19:14:08 56° NW 19:19:47 10° NNE visible
14 Oct - 20:52:53 10° WNW 20:57:23 22° NNW 21:01:44 10° NNE visible
14 Oct - 22:37:55 10° NW 22:41:29 17° N 22:44:56 10° NE visible
15 Oct - 00:20:46 10° NNW 00:25:27 27° NNE 00:29:48 10° E visible
15 Oct - 02:02:49 10° NW 02:08:17 87° NE 02:13:13 10° SE night (unlit)
15 Oct - 03:46:07 10° WNW 03:49:31 18° WSW 03:52:45 10° SSW night (unlit)
15 Oct - 16:37:50 10° SSE 16:42:15 22° ESE 16:46:37 10° ENE daylight
15 Oct - 18:17:48 10° SW 18:23:45 86° NW 18:29:33 10° NE visible
15 Oct - 20:01:31 10° W 20:06:35 29° NNW 20:11:28 10° NNE visible
15 Oct - 21:46:49 10° NW 21:50:28 17° N 21:53:59 10° NE visible
15 Oct - 23:30:26 10° NNW 23:34:36 21° NNE 23:38:32 10° ENE visible
16 Oct - 01:12:33 10° NNW 01:17:54 53° NE 01:22:47 10° ESE night (unlit)
16 Oct - 02:55:04 10° NW 02:59:43 32° WSW 03:04:02 10° S night (unlit)
16 Oct - 15:50:18 10° SE 15:52:30 12° ESE 15:54:42 10° E daylight
16 Oct - 17:27:43 10° SSW 17:33:32 59° ESE 17:39:13 10° NE visible
16 Oct - 19:10:22 10° WSW 19:15:54 40° NW 19:21:15 10° NNE visible
16 Oct - 20:55:28 10° WNW 20:59:29 19° NNW 21:03:22 10° NNE visible
16 Oct - 22:39:56 10° NNW 22:43:39 18° N 22:47:13 10° NE visible
